COSMOS 1275 DEB, 12670

Orbit data source: Space-Track

COSMOS 1275 DEB, 12670 is space debris in LEO originally from a launch on Thu, 04 Jun 1981 UTC launched from the Plesetsk Missile And Space Complex (PKMTR). Debris objects in space refer to the collection of defunct objects orbiting the Earth. Examples of debris include non-operational satellites, rocket bodies, and fragments generated from explosions, collisions, or faulty payload assembly.

Loading next visibility...
Identifier
12670, 1981-053AA
Orbit
LEO
Country
Flag of CISCIS
Related business
Manufacturer
Unknown
Mission
Spacecraft
Bus & Motor
Unknown
Mass
Unknown
Launch date (UTC)
1981-06-04 (45 years ago)
Launch vehicle
Unknown
Launch site
Plesetsk Missile And Space Complex (PKMTR)
Object type
Payload
Rocket body
Debris
Shape & HBR
Unknown shape, 0.4 m
Radar Cross Section
Medium (>0.1 m² and <1 m²)

Expand to show TLE details & history
Last TLE update: 16 hours ago

TLE from 16 hours ago
0 COSMOS 1275 DEB
1 12670U 81053AA  26127.78801456  .00000484  00000-0  43738-3 0  9994
2 12670  82.9415 234.7511 0056566 177.8466 302.2109 13.81117981248198
Epoch: 2026-05-07T18:54Z
TLE epoch observation values (Epoch: 2026-05-07T18:54:44.457Z)
Latitude
59.82879°
Longitude
-106.79584°
Altitude
948.133 km
Speed
7.394 km/s
True Right ascension
02h 50m 04s
True Declination
59° 40' 59"
Sunlit
Object was in daylight at epoch
Visualization orbit readout
Latitude
Unknown
Longitude
Unknown
Altitude
Unknown
Speed
Unknown
Apparent Right ascension
Unknown
Apparent Declination
Unknown
Sunlit
N/A
Visualization observer readout
Local Sidereal Time
19:00:16
Azimuth
Unknown
Elevation
Unknown
Doppler factor
Unknown
Orbital elements
Apogee altitude
998.557 km
Perigee altitude
915.572 km
Semi-major axis
7,335.201 km
Eccentricity
0.00566
Inclination
82.9415°
RAAN
234.7511°
Arg. of periapsis
177.8466°
True anomaly
301.6604°
Mean anomaly
302.2109°
Eccentric anomaly
301.93586°
Mean motion
3.45482 °/min
Orbital period
104.2 mins
BSTAR
0.00043738
Loading maneuver chart data...
Computing Atmospheric mass density...
Loading historical data...
Loading historical data...
Loading historical data...
Loading historical data...
Loading historical data...
Loading historical data...
Loading historical data...

Documentation

Showing up to 5 results
|